GW4151 Weather Reports


Display with metric or nautical units.
time (UTC)temp
F
wind
direction
speed
MPH
gust
MPH
rain 1hr
in
rain 24hr
in
rain mn
in
humidity
%
barometer
mb
20260905184329 69 327 3.0 3.0 0.00 0.01 0.01 97 995.8
20260905182823 69 255 1.0 2.0 0.07 0.01 0.01 97 996.1
20260905181318 69 176 2.0 4.0 0.00 0.00 0.00 96 996.0
20260905175813 70 53 2.0 3.0 0.00 0.00 0.00 94 995.7
20260905174311 70 304 2.0 3.0 0.00 0.00 0.00 93 995.7
20260905172808 71 13 2.0 6.0 0.00 0.00 0.00 92 995.7
20260905171305 71 37 4.0 7.0 0.00 0.00 0.00 91 995.7
20260905165801 71 78 2.0 7.0 0.00 0.00 0.00 92 996.0
20260905164258 71 43 4.0 6.0 0.00 0.00 0.00 90 995.5
20260905162757 72 349 1.0 8.0 0.00 0.00 0.00 90 995.8
20260905161255 72 103 2.0 3.0 0.00 0.00 0.00 90 995.6
20260905155755 71 34 4.0 6.0 0.00 0.00 0.00 90 995.6
20260905154250 71 352 2.0 6.0 0.00 0.00 0.00 91 995.6
20260905152748 71 68 2.0 4.0 0.00 0.00 0.00 90 995.3
20260905151244 71 26 1.0 2.0 0.00 0.00 0.00 91 995.5
20260905145740 70 334 2.0 4.0 0.00 0.00 0.00 92 995.5
20260905144236 70 6 1.0 3.0 0.00 0.00 0.00 93 995.4
20260905142733 71 21 2.0 3.0 0.00 0.00 0.00 93 995.3
20260905141231 71 58 2.0 4.0 0.00 0.00 0.00 93 995.0
20260905135726 70 172 1.0 3.0 0.00 0.00 0.00 95 994.8
20260905134226 70 151 0.0 3.0 0.00 0.00 0.00 96 994.9
20260905132721 69 30 4.0 6.0 0.00 0.00 0.00 98 994.8
20260905131219 69 358 4.0 6.0 0.00 0.00 0.00 99 994.5
20260905125714 69 50 3.0 3.0 0.00 0.00 0.00 99 994.6
20260905124213 69 173 1.0 6.0 0.00 0.00 0.00 99 994.5
20260905122710 69 47 3.0 4.0 0.00 0.00 0.00 99 994.1
20260905121208 69 87 4.0 6.0 0.00 0.00 0.00 99 994.0
20260905115707 69 106 4.0 6.0 0.00 0.00 0.00 99 994.2
20260905114206 70 38 2.0 2.0 0.00 0.00 0.00 99 994.1
20260905112701 70 176 0.0 1.0 0.00 0.00 0.00 99 993.6
20260905111156 70 194 0.0 1.0 0.00 0.00 0.00 99 993.7
20260905105652 69 247 1.0 2.0 0.00 0.00 0.00 99 993.6
20260905104148 70 108 2.0 4.0 0.00 0.00 0.00 99 993.6
20260905102646 70 187 1.0 2.0 0.00 0.00 0.00 99 993.8
20260905101145 70 29 1.0 2.0 0.00 0.00 0.00 99 993.8
20260905095641 70 114 1.0 4.0 0.00 0.00 0.00 99 993.5
20260905094137 70 44 2.0 4.0 0.00 0.00 0.00 99 993.4
20260905092634 70 193 2.0 6.0 0.00 0.00 0.00 99 993.2
20260905091129 70 208 1.0 2.0 0.00 0.00 0.00 99 993.5
20260905085624 70 178 1.0 2.0 0.00 0.00 0.00 99 993.4
20260905084120 70 230 2.0 4.0 0.00 0.00 0.00 99 993.2
20260905082618 69 72 2.0 4.0 0.00 0.00 0.00 99 992.9
20260905081114 69 348 0.0 0.0 0.00 0.00 0.00 99 992.8
20260905075613 69 106 0.0 1.0 0.00 0.00 0.00 99 992.9
20260905074108 69 32 0.0 3.0 0.00 0.00 0.00 99 992.7
20260905072604 69 240 0.0 0.0 0.00 0.00 0.00 99 993.1
20260905071103 69 131 0.0 1.0 0.00 0.00 0.00 99 992.8
20260905065557 69 3 2.0 7.0 0.00 0.00 0.00 99 993.1
20260905064054 68 151 0.0 1.0 0.00 0.00 0.00 99 993.4
20260905062550 69 194 0.0 0.0 0.00 0.00 0.00 99 993.4
20260905061050 69 141 0.0 1.0 0.00 0.00 0.00 99 993.1
20260905055546 69 183 0.0 0.0 0.00 0.00 0.00 99 993.1
20260905054044 69 180 0.0 0.0 0.00 0.00 0.00 99 993.3
20260905052544 69 151 0.0 0.0 0.00 0.00 0.00 99 993.4
20260905051044 69 151 0.0 0.0 0.00 0.00 0.00 99 993.6
20260905045542 70 151 0.0 0.0 0.00 0.00 0.00 99 993.5
20260905044038 69 151 0.0 0.0 0.00 0.00 0.00 99 993.4
20260905042537 69 154 0.0 0.0 0.00 0.00 0.00 99 993.2
20260905041035 70 154 0.0 0.0 0.00 0.00 0.00 99 993.2
20260905035534 70 153 0.0 0.0 0.00 2.06 2.06 99 993.7
20260905034032 70 170 0.0 0.0 0.00 2.06 2.06 99 993.8
20260905032529 70 171 0.0 0.0 0.00 2.06 2.06 99 994.2
20260905031024 71 171 0.0 0.0 0.00 2.06 2.06 99 994.3
20260905025521 71 176 0.0 0.0 0.00 2.06 2.06 99 994.5
20260905024019 71 176 0.0 0.0 0.00 2.06 2.06 98 994.4
20260905022515 71 190 0.0 0.0 0.00 2.06 2.06 98 994.4
20260905021010 72 194 0.0 0.0 0.00 2.06 2.06 97 994.2
20260905015509 72 191 0.0 0.0 0.00 2.06 2.06 97 994.2
20260905014005 72 176 0.0 0.0 0.00 2.06 2.06 97 994.1
20260905012503 72 176 0.0 0.0 0.00 2.06 2.06 97 994.2
20260905011003 72 166 0.0 0.0 0.00 2.06 2.06 97 994.3
20260905005500 73 168 0.0 0.0 0.00 2.06 2.06 96 993.9
20260905003957 73 173 0.0 0.0 0.00 2.06 2.06 95 993.9
20260905002455 74 176 0.0 0.0 0.00 2.06 2.06 94 993.7
20260905000950 74 184 0.0 0.0 0.00 2.06 2.06 93 993.7
20260904235449 75 162 0.0 0.0 0.00 2.06 2.06 91 993.4
20260904233945 77 187 0.0 0.0 0.00 2.06 2.06 89 993.7
20260904232444 77 176 1.0 2.0 0.00 2.06 2.06 88 993.4
20260904230942 78 71 2.0 2.0 0.00 2.06 2.06 87 993.5
20260904225440 78 70 3.0 3.0 0.00 2.06 2.06 86 993.6
20260904223935 78 135 2.0 3.0 0.00 2.06 2.06 84 993.5
20260904222432 79 285 2.0 3.0 0.00 2.06 2.06 83 993.5
20260904220928 78 138 1.0 2.0 0.00 2.06 2.06 84 993.2
20260904215424 79 176 0.0 2.0 0.00 2.06 2.06 82 993.3
20260904213920 78 184 0.0 2.0 0.00 2.06 2.06 84 993.1
20260904212416 80 148 1.0 2.0 0.00 2.06 2.06 83 993.2
20260904210913 78 153 1.0 4.0 0.00 2.06 2.06 85 993.3
20260904205410 77 13 2.0 3.0 0.00 2.06 2.06 88 993.3
20260904203909 76 182 2.0 4.0 0.00 2.06 2.06 89 993.5
20260904202408 77 166 1.0 1.0 0.00 2.06 2.06 86 993.6
20260904200906 77 200 0.0 1.0 0.00 2.06 2.06 85 993.9
20260904195403 76 48 1.0 2.0 0.00 2.06 2.06 87 993.8
20260904193859 76 153 2.0 3.0 0.00 2.06 2.06 87 993.8
20260904192356 75 25 3.0 3.0 0.00 2.06 2.06 88 993.8
20260904190851 76 203 1.0 2.0 0.00 2.06 2.06 87 994.0